ONEWEB-0700, 61606

Orbit data source: Space-Track

ONEWEB-0700, 61606 is a payload satellite owned by Eut. One Web (UK) in LEO that was launched on Sun, 20 Oct 2024 UTC via an FALCON 9 launch vehicle from the Air Force Western Test Range (AFWTR). Payload-class satellites include a variety of spacecraft equipped with specific instruments for various scientific and technological missions. These include communications satellites like Starlink; space stations such as the ISS; scientific satellites like the Hubble; Earth observation satellites from companies like Planet Labs, Umbra, and HawkEye 360; GPS; miniature CubeSats for education and research; and military/defense satellites.

Loading next visibility...
Identifier
61606, 2024-188N
Orbit
LEO
Country
Flag of UKUK
Related business
Manufacturer
One Web
Mission
Operational Commercial Communications
Bus & Motor
ARROW, Unknown motor
Mass
148 kg wet, ~140 kg dry
Launch date (UTC)
Icon of a cake. It is the launch day of the satellite!2024-10-20 (1 year ago)
Launch vehicle
FALCON 9
Launch site
Air Force Western Test Range (AFWTR)
Object type
Payload
Rocket body
Debris
Shape & HBR
Trap Box + 2 Pan, 6.7 m
Radar Cross Section
3.464 m², Large (>1 m²)

Expand to show TLE details & history
Last TLE update: 1 day ago

TLE from 1 day ago
0 ONEWEB-0700
1 61606U 24188N   25291.85110646 -.00000345  00000-0 -10237-2 0  9991
2 61606  87.8774  84.2513 0002343  88.5060 271.6336 13.10373959 51694
Epoch: 2025-10-18T20:25Z
TLE epoch observation values (Epoch: 2025-10-18T20:25:35.598Z)
Latitude
0.00002°
Longitude
110.27678°
Altitude
1,224.55 km
Speed
7.242 km/s
True Right ascension
05h 37m 00s
True Declination
0° 00' 00"
Sunlit
Object was in daylight at epoch
Visualization orbit readout
Latitude
Unknown
Longitude
Unknown
Altitude
Unknown
Speed
Unknown
Apparent Right ascension
Unknown
Apparent Declination
Unknown
Sunlit
N/A
Visualization observer readout
Local Sidereal Time
19:42:40
Azimuth
Unknown
Elevation
Unknown
Doppler factor
Unknown
Orbital elements
Apogee altitude
1,220.613 km
Perigee altitude
1,217.053 km
Semi-major axis
7,596.97 km
Eccentricity
0.00023
Inclination
87.8774°
RAAN
84.2513°
Arg. of periapsis
88.506°
True anomaly
271.60676°
Mean anomaly
271.6336°
Eccentric anomaly
271.62018°
Mean motion
3.2778 °/min
Orbital period
109.83 mins
BSTAR
-0.0010237
Loading maneuver chart data...
Computing Atmospheric mass density...
Loading historical data...
Loading historical data...
Loading historical data...
Loading historical data...
Loading historical data...
Loading historical data...
Loading historical data...

Documentation

Showing up to 5 results
|